RYR47FF LEPA-LPPR

Flight info

Callsign RYR47FF
Flight time 1h 40m
Altitude 37000
Route EPAMA N733 ZMR L155 ADORO DCT INKIT
Aircraft B38M/M-SDE1FGHILORVWXY/HB1

Departure

Time 2026-05-07 17:50
Airport Palma de Mallorca Airport (LEPA)

Arrival

Time 2026-05-07 19:30
Airport Francisco de Sá Carneiro Airport (LPPR)
Time Latitude Longitude Altitude Speed Heading
2026-05-07 17:14 39.54711 2.73656 41 ft 0 kts 58°
2026-05-07 17:41 39.54705 2.73641 41 ft 4 kts 66°
2026-05-07 17:42 39.54700 2.73609 41 ft 4 kts 99°
2026-05-07 17:42 39.54710 2.73580 37 ft 4 kts 137°
2026-05-07 17:42 39.54721 2.73569 37 ft 1 kts 149°
2026-05-07 17:45 39.54717 2.73572 38 ft 2 kts 149°
2026-05-07 17:46 39.54686 2.73596 37 ft 10 kts 149°
2026-05-07 17:46 39.54612 2.73629 40 ft 10 kts 159°
2026-05-07 17:46 39.54549 2.73614 41 ft 11 kts 226°
2026-05-07 17:46 39.54505 2.73526 41 ft 13 kts 239°
2026-05-07 17:47 39.54455 2.73425 41 ft 14 kts 238°
2026-05-07 17:47 39.54402 2.73311 41 ft 16 kts 238°
2026-05-07 17:47 39.54341 2.73183 41 ft 18 kts 238°
2026-05-07 17:47 39.54283 2.73060 39 ft 15 kts 238°
2026-05-07 17:48 39.54231 2.72949 41 ft 13 kts 232°
2026-05-07 17:48 39.54177 2.72928 41 ft 7 kts 150°
2026-05-07 17:48 39.54153 2.72987 41 ft 9 kts 101°
2026-05-07 17:48 39.54151 2.73076 41 ft 12 kts 91°
2026-05-07 17:49 39.54151 2.73196 41 ft 15 kts 84°
2026-05-07 17:49 39.54232 2.73391 40 ft 50 kts 58°
2026-05-07 17:49 39.54541 2.74046 39 ft 117 kts 58°
2026-05-07 17:49 39.55063 2.75146 110 ft 162 kts 58°
2026-05-07 17:50 39.55651 2.76444 671 ft 172 kts 60°
2026-05-07 17:50 39.56260 2.77806 1414 ft 172 kts 58°
2026-05-07 17:50 39.56891 2.79153 2057 ft 185 kts 59°
2026-05-07 17:50 39.57606 2.80690 2421 ft 212 kts 59°
2026-05-07 17:51 39.58354 2.82300 3400 ft 204 kts 60°
2026-05-07 17:51 39.59097 2.83905 4132 ft 212 kts 60°
2026-05-07 17:51 39.59867 2.85566 4893 ft 215 kts 60°
2026-05-07 17:51 39.60643 2.87247 5672 ft 219 kts 60°
2026-05-07 17:52 39.61428 2.88946 6495 ft 221 kts 60°
2026-05-07 17:52 39.62245 2.90650 7255 ft 225 kts 52°
2026-05-07 17:52 39.63480 2.91845 8018 ft 232 kts 18°
2026-05-07 17:52 39.65118 2.91918 8703 ft 247 kts 350°
2026-05-07 17:53 39.66725 2.90932 9195 ft 270 kts 317°
2026-05-07 17:53 39.67739 2.88828 9701 ft 288 kts 284°
2026-05-07 17:53 39.67810 2.86186 10209 ft 302 kts 261°
2026-05-07 17:53 39.67621 2.83378 10622 ft 323 kts 265°
2026-05-07 17:54 39.67499 2.80410 11165 ft 336 kts 266°
2026-05-07 17:54 39.67375 2.77361 11955 ft 339 kts 265°
2026-05-07 17:54 39.67240 2.74303 12778 ft 342 kts 265°
2026-05-07 17:54 39.67102 2.71196 13520 ft 347 kts 265°
2026-05-07 17:55 39.66964 2.68052 14225 ft 350 kts 265°
2026-05-07 17:55 39.66821 2.64882 14893 ft 353 kts 265°
2026-05-07 17:55 39.66674 2.61688 15548 ft 357 kts 265°
2026-05-07 17:55 39.66526 2.58455 16150 ft 361 kts 264°
2026-05-07 17:56 39.66375 2.55189 16730 ft 365 kts 264°
2026-05-07 17:56 39.66222 2.51888 17287 ft 368 kts 264°
2026-05-07 17:56 39.66067 2.48555 17827 ft 372 kts 264°
2026-05-07 17:56 39.65909 2.45189 18316 ft 375 kts 264°
2026-05-07 17:57 39.65750 2.41809 18783 ft 377 kts 264°
2026-05-07 17:57 39.65641 2.39513 19118 ft 377 kts 264°
2026-05-07 17:57 39.65427 2.35023 19782 ft 376 kts 263°
2026-05-07 17:57 39.65265 2.31641 20273 ft 376 kts 263°
2026-05-07 17:58 39.65100 2.28260 20747 ft 375 kts 263°
2026-05-07 17:58 39.64933 2.24874 21171 ft 377 kts 263°
2026-05-07 17:58 39.64766 2.21475 21571 ft 378 kts 262°
2026-05-07 17:58 39.64597 2.18074 21973 ft 379 kts 262°
2026-05-07 17:59 39.64426 2.14655 22348 ft 380 kts 262°
2026-05-07 17:59 39.64254 2.11226 22709 ft 382 kts 262°
2026-05-07 17:59 39.64080 2.07781 23069 ft 383 kts 262°
2026-05-07 17:59 39.63904 2.04328 23419 ft 384 kts 262°
2026-05-07 18:00 39.63726 2.00862 23714 ft 385 kts 262°
2026-05-07 18:00 39.63548 1.97387 23980 ft 387 kts 262°
2026-05-07 18:00 39.63366 1.93892 24248 ft 388 kts 262°
2026-05-07 18:00 39.63186 1.90439 24519 ft 389 kts 261°
2026-05-07 18:01 39.62994 1.86912 24612 ft 396 kts 262°
2026-05-07 18:01 39.62808 1.83310 24729 ft 402 kts 262°
2026-05-07 18:01 39.62616 1.79703 25292 ft 402 kts 262°
2026-05-07 18:01 39.62422 1.76065 25695 ft 406 kts 262°
2026-05-07 18:02 39.62026 1.68738 26641 ft 409 kts 262°
2026-05-07 18:02 39.61825 1.65049 27092 ft 412 kts 262°
2026-05-07 18:02 39.61621 1.61332 27537 ft 414 kts 262°
2026-05-07 18:03 39.61416 1.57606 27979 ft 416 kts 262°
2026-05-07 18:03 39.61207 1.53851 28411 ft 418 kts 262°
2026-05-07 18:03 39.60995 1.50077 28843 ft 421 kts 261°
2026-05-07 18:03 39.60782 1.46277 29198 ft 425 kts 261°
2026-05-07 18:04 39.60565 1.42447 29626 ft 427 kts 261°
2026-05-07 18:04 39.60348 1.38604 30015 ft 429 kts 261°
2026-05-07 18:04 39.60136 1.34730 30362 ft 431 kts 262°
2026-05-07 18:04 39.59921 1.30855 30753 ft 432 kts 262°
2026-05-07 18:05 39.59705 1.26971 31141 ft 432 kts 262°
2026-05-07 18:05 39.59486 1.23080 31522 ft 433 kts 262°
2026-05-07 18:05 39.59267 1.19192 31902 ft 433 kts 262°
2026-05-07 18:05 39.59045 1.15290 32267 ft 434 kts 262°
2026-05-07 18:06 39.58822 1.11383 32643 ft 434 kts 263°
2026-05-07 18:06 39.58598 1.07484 33116 ft 432 kts 263°
2026-05-07 18:06 39.58375 1.03617 33653 ft 428 kts 263°
2026-05-07 18:06 39.58152 0.99787 34136 ft 425 kts 264°
2026-05-07 18:07 39.57928 0.95983 34535 ft 422 kts 264°
2026-05-07 18:07 39.57705 0.92201 34882 ft 420 kts 264°
2026-05-07 18:07 39.57483 0.88436 35213 ft 418 kts 264°
2026-05-07 18:07 39.57260 0.84697 35607 ft 415 kts 264°
2026-05-07 18:08 39.57038 0.80981 35952 ft 412 kts 264°
2026-05-07 18:08 39.56815 0.77280 36254 ft 411 kts 264°
2026-05-07 18:08 39.56592 0.73596 36550 ft 410 kts 265°
2026-05-07 18:08 39.56369 0.69916 36830 ft 409 kts 265°
2026-05-07 18:09 39.56145 0.66235 36969 ft 411 kts 265°
2026-05-07 18:09 39.55688 0.58811 36947 ft 410 kts 265°
2026-05-07 18:10 39.55310 0.52718 36945 ft 407 kts 265°
2026-05-07 18:10 39.54777 0.44222 36954 ft 407 kts 265°
2026-05-07 18:11 39.54389 0.38093 36950 ft 407 kts 265°
2026-05-07 18:11 39.53924 0.30796 36953 ft 405 kts 265°
2026-05-07 18:12 39.53456 0.23565 36949 ft 405 kts 265°
2026-05-07 18:12 39.52981 0.16291 36949 ft 405 kts 265°
2026-05-07 18:13 39.52502 0.09016 36951 ft 405 kts 265°
2026-05-07 18:13 39.52018 0.01741 36954 ft 405 kts 265°
2026-05-07 18:14 39.51531 -0.05516 36970 ft 401 kts 265°
2026-05-07 18:14 39.51047 -0.12658 36966 ft 398 kts 265°
2026-05-07 18:15 39.50558 -0.19797 36970 ft 398 kts 265°
2026-05-07 18:15 39.50065 -0.26940 36981 ft 398 kts 265°
2026-05-07 18:16 39.49568 -0.34079 36992 ft 398 kts 265°
2026-05-07 18:16 39.49068 -0.41209 36994 ft 398 kts 265°
2026-05-07 18:17 39.49184 -0.48317 36974 ft 397 kts 285°
2026-05-07 18:17 39.51582 -0.54823 36982 ft 404 kts 295°
2026-05-07 18:18 39.54299 -0.61194 36992 ft 404 kts 296°
2026-05-07 18:18 39.57073 -0.67532 36961 ft 404 kts 296°
2026-05-07 18:19 39.59868 -0.73884 36959 ft 408 kts 296°
2026-05-07 18:19 39.62682 -0.80284 36973 ft 408 kts 296°
2026-05-07 18:20 39.65477 -0.86656 36973 ft 406 kts 296°
2026-05-07 18:20 39.68268 -0.93029 36975 ft 406 kts 296°
2026-05-07 18:21 39.71055 -0.99413 36943 ft 406 kts 296°
2026-05-07 18:21 39.73836 -1.05803 36939 ft 406 kts 296°
2026-05-07 18:22 39.76623 -1.12195 36944 ft 406 kts 296°
2026-05-07 18:22 39.79399 -1.18563 36956 ft 402 kts 296°
2026-05-07 18:23 39.82150 -1.24896 36945 ft 404 kts 296°
2026-05-07 18:23 39.84914 -1.31278 36960 ft 405 kts 296°
2026-05-07 18:24 39.87679 -1.37676 36963 ft 405 kts 296°
2026-05-07 18:24 39.90437 -1.44072 36980 ft 405 kts 296°
2026-05-07 18:25 39.93191 -1.50471 36993 ft 405 kts 296°
2026-05-07 18:25 39.95937 -1.56864 37006 ft 403 kts 296°
2026-05-07 18:26 39.98662 -1.63224 37000 ft 402 kts 296°
2026-05-07 18:26 40.01383 -1.69586 36984 ft 402 kts 296°
2026-05-07 18:27 40.04112 -1.75979 36987 ft 405 kts 296°
2026-05-07 18:27 40.06832 -1.82367 36985 ft 405 kts 296°
2026-05-07 18:28 40.09565 -1.88796 36991 ft 405 kts 296°
2026-05-07 18:28 40.12293 -1.95226 36993 ft 402 kts 296°
2026-05-07 18:29 40.14988 -2.01578 36978 ft 399 kts 297°
2026-05-07 18:29 40.17630 -2.07776 36983 ft 400 kts 296°
2026-05-07 18:30 40.20329 -2.14125 36962 ft 399 kts 296°
2026-05-07 18:30 40.23005 -2.20485 36965 ft 399 kts 296°
2026-05-07 18:31 40.25692 -2.26891 36970 ft 405 kts 296°
2026-05-07 18:31 40.28403 -2.33364 36956 ft 402 kts 296°
2026-05-07 18:32 40.31078 -2.39766 36959 ft 400 kts 296°
2026-05-07 18:32 40.33742 -2.46155 36949 ft 400 kts 296°
2026-05-07 18:33 40.36406 -2.52554 36950 ft 400 kts 296°
2026-05-07 18:33 40.38961 -2.59015 36950 ft 399 kts 295°
2026-05-07 18:34 40.41505 -2.65491 36941 ft 399 kts 295°
2026-05-07 18:34 40.44040 -2.71950 36942 ft 396 kts 295°
2026-05-07 18:35 40.46563 -2.78391 36940 ft 398 kts 295°
2026-05-07 18:35 40.49094 -2.84867 36931 ft 398 kts 295°
2026-05-07 18:36 40.51619 -2.91342 36928 ft 398 kts 295°
2026-05-07 18:36 40.54140 -2.97820 36930 ft 398 kts 295°
2026-05-07 18:37 40.56657 -3.04301 36926 ft 398 kts 295°
2026-05-07 18:37 40.59159 -3.10760 36928 ft 394 kts 295°
2026-05-07 18:38 40.61640 -3.17178 36926 ft 393 kts 295°
2026-05-07 18:38 40.64118 -3.23601 36914 ft 393 kts 295°
2026-05-07 18:39 40.66592 -3.30029 36917 ft 393 kts 295°
2026-05-07 18:39 40.69060 -3.36456 36917 ft 393 kts 295°
2026-05-07 18:40 40.71526 -3.42889 36918 ft 393 kts 295°
2026-05-07 18:40 40.73980 -3.49309 36917 ft 391 kts 294°
2026-05-07 18:41 40.76424 -3.55713 36917 ft 390 kts 294°
2026-05-07 18:41 40.78862 -3.62115 36928 ft 390 kts 294°
2026-05-07 18:42 40.81282 -3.68487 36931 ft 390 kts 294°
2026-05-07 18:42 40.83714 -3.74903 36938 ft 390 kts 294°
2026-05-07 18:43 40.86143 -3.81321 36935 ft 391 kts 294°
2026-05-07 18:43 40.88574 -3.87765 36930 ft 392 kts 294°
2026-05-07 18:44 40.91002 -3.94212 36925 ft 391 kts 294°
2026-05-07 18:44 40.93427 -4.00666 36916 ft 392 kts 294°
2026-05-07 18:45 40.95841 -4.07106 36924 ft 391 kts 294°
2026-05-07 18:45 40.98256 -4.13557 36923 ft 391 kts 294°
2026-05-07 18:46 41.00667 -4.20011 36920 ft 391 kts 294°
2026-05-07 18:46 41.03071 -4.26471 36921 ft 391 kts 294°
2026-05-07 18:47 41.05473 -4.32932 36941 ft 391 kts 294°
2026-05-07 18:47 41.07880 -4.39420 36921 ft 393 kts 294°
2026-05-07 18:48 41.10291 -4.45933 36911 ft 393 kts 294°
2026-05-07 18:48 41.12694 -4.52438 36914 ft 393 kts 294°
2026-05-07 18:49 41.15095 -4.58953 36903 ft 392 kts 294°
2026-05-07 18:49 41.17480 -4.65446 36909 ft 391 kts 293°
2026-05-07 18:50 41.19845 -4.71896 36907 ft 391 kts 293°
2026-05-07 18:50 41.22219 -4.78387 36906 ft 391 kts 293°
2026-05-07 18:51 41.24590 -4.84885 36916 ft 391 kts 293°
2026-05-07 18:51 41.26960 -4.91393 36907 ft 391 kts 294°
2026-05-07 18:52 41.29326 -4.97907 36896 ft 391 kts 293°
2026-05-07 18:52 41.31304 -5.03363 36901 ft 391 kts 293°
2026-05-07 18:53 41.33666 -5.09892 36898 ft 391 kts 293°
2026-05-07 18:53 41.36022 -5.16421 36905 ft 391 kts 293°
2026-05-07 18:54 41.38376 -5.22958 36899 ft 391 kts 293°
2026-05-07 18:54 41.40724 -5.29496 36894 ft 391 kts 293°
2026-05-07 18:55 41.43055 -5.36000 36871 ft 392 kts 293°
2026-05-07 18:55 41.45405 -5.42570 36892 ft 393 kts 293°
2026-05-07 18:56 41.47755 -5.49156 36882 ft 393 kts 293°
2026-05-07 18:56 41.50104 -5.55757 36887 ft 393 kts 292°
2026-05-07 18:57 41.52326 -5.62410 36866 ft 390 kts 282°
2026-05-07 18:57 41.52622 -5.65977 36880 ft 387 kts 268°
2026-05-07 18:57 41.52473 -5.69580 36871 ft 391 kts 268°
2026-05-07 18:58 41.51672 -5.76744 36886 ft 393 kts 259°
2026-05-07 18:58 41.50558 -5.83885 36843 ft 392 kts 260°
2026-05-07 18:58 41.50050 -5.87257 36625 ft 385 kts 261°
2026-05-07 18:59 41.49694 -5.89624 36457 ft 381 kts 261°
2026-05-07 18:59 41.49176 -5.93082 36223 ft 377 kts 261°
2026-05-07 18:59 41.48589 -5.96478 35993 ft 375 kts 258°
2026-05-07 18:59 41.47971 -5.99850 35774 ft 373 kts 259°
2026-05-07 19:00 41.47364 -6.03201 35552 ft 371 kts 259°
2026-05-07 19:00 41.46762 -6.06528 35335 ft 369 kts 259°
2026-05-07 19:00 41.46191 -6.09696 35117 ft 367 kts 259°
2026-05-07 19:00 41.45594 -6.12994 34899 ft 365 kts 258°
2026-05-07 19:01 41.45004 -6.16250 34570 ft 360 kts 259°
2026-05-07 19:01 41.44414 -6.19503 33998 ft 361 kts 259°
2026-05-07 19:01 41.43823 -6.22757 33326 ft 362 kts 259°
2026-05-07 19:01 41.43229 -6.26016 32755 ft 361 kts 258°
2026-05-07 19:02 41.42638 -6.29256 32298 ft 358 kts 258°
2026-05-07 19:02 41.42060 -6.32423 31874 ft 355 kts 258°
2026-05-07 19:02 41.41469 -6.35650 31412 ft 352 kts 258°
2026-05-07 19:02 41.40890 -6.38807 30968 ft 350 kts 258°
2026-05-07 19:03 41.40315 -6.41944 30512 ft 348 kts 258°
2026-05-07 19:03 41.39740 -6.45071 30080 ft 346 kts 258°
2026-05-07 19:03 41.39175 -6.48135 29595 ft 345 kts 258°
2026-05-07 19:03 41.38628 -6.51099 29150 ft 343 kts 257°
2026-05-07 19:04 41.38061 -6.54172 28720 ft 340 kts 257°
2026-05-07 19:04 41.37587 -6.56732 28378 ft 337 kts 257°
2026-05-07 19:04 41.37111 -6.59296 28022 ft 335 kts 257°
2026-05-07 19:04 41.36554 -6.62299 27631 ft 332 kts 257°
2026-05-07 19:05 41.36001 -6.65276 27240 ft 330 kts 257°
2026-05-07 19:05 41.35451 -6.68234 26852 ft 328 kts 257°
2026-05-07 19:05 41.34903 -6.71173 26467 ft 326 kts 257°
2026-05-07 19:05 41.34357 -6.74096 26085 ft 324 kts 257°
2026-05-07 19:06 41.33813 -6.77003 25724 ft 323 kts 257°
2026-05-07 19:06 41.32717 -6.82852 24984 ft 330 kts 257°
2026-05-07 19:06 41.32157 -6.85832 24606 ft 334 kts 256°
2026-05-07 19:07 41.31593 -6.88831 24239 ft 335 kts 256°
2026-05-07 19:07 41.31026 -6.91840 23860 ft 335 kts 256°
2026-05-07 19:07 41.30459 -6.94845 23488 ft 335 kts 256°
2026-05-07 19:07 41.29892 -6.97845 23049 ft 334 kts 256°
2026-05-07 19:08 41.29327 -7.00829 22660 ft 332 kts 256°
2026-05-07 19:08 41.28765 -7.03792 22294 ft 329 kts 256°
2026-05-07 19:08 41.28206 -7.06734 21934 ft 327 kts 256°
2026-05-07 19:08 41.27650 -7.09657 21581 ft 325 kts 256°
2026-05-07 19:09 41.27099 -7.12551 21226 ft 322 kts 256°
2026-05-07 19:09 41.26550 -7.15428 20889 ft 320 kts 255°
2026-05-07 19:09 41.26012 -7.18244 20560 ft 317 kts 255°
2026-05-07 19:09 41.25463 -7.21113 20219 ft 315 kts 255°
2026-05-07 19:10 41.24925 -7.23920 19894 ft 313 kts 254°
2026-05-07 19:10 41.24391 -7.26710 19564 ft 311 kts 254°
2026-05-07 19:10 41.23858 -7.29484 19239 ft 309 kts 254°
2026-05-07 19:10 41.23330 -7.32222 18917 ft 312 kts 254°
2026-05-07 19:11 41.22789 -7.35034 18584 ft 316 kts 253°
2026-05-07 19:11 41.22241 -7.37871 18252 ft 318 kts 254°
2026-05-07 19:11 41.21692 -7.40715 17881 ft 317 kts 253°
2026-05-07 19:11 41.21144 -7.43549 17521 ft 315 kts 253°
2026-05-07 19:12 41.20599 -7.46357 17187 ft 312 kts 253°
2026-05-07 19:12 41.20061 -7.49134 16867 ft 310 kts 253°
2026-05-07 19:12 41.19525 -7.51892 16539 ft 307 kts 253°
2026-05-07 19:12 41.18993 -7.54625 16220 ft 305 kts 253°
2026-05-07 19:13 41.18464 -7.57338 15901 ft 302 kts 253°
2026-05-07 19:13 41.17939 -7.60029 15600 ft 301 kts 253°
2026-05-07 19:13 41.17414 -7.62711 15284 ft 299 kts 253°
2026-05-07 19:13 41.16894 -7.65371 14964 ft 297 kts 252°
2026-05-07 19:14 41.16376 -7.68018 14661 ft 296 kts 252°
2026-05-07 19:14 41.15860 -7.70649 14342 ft 294 kts 252°
2026-05-07 19:14 41.15345 -7.73274 14036 ft 293 kts 252°
2026-05-07 19:14 41.14832 -7.75881 13727 ft 292 kts 252°
2026-05-07 19:15 41.14321 -7.78477 13369 ft 290 kts 252°
2026-05-07 19:15 41.13813 -7.81050 13051 ft 287 kts 252°
2026-05-07 19:15 41.13309 -7.83599 12733 ft 284 kts 252°
2026-05-07 19:15 41.12812 -7.86117 12431 ft 280 kts 252°
2026-05-07 19:16 41.12320 -7.88604 12146 ft 277 kts 252°
2026-05-07 19:16 41.11825 -7.91099 11871 ft 283 kts 252°
2026-05-07 19:16 41.11320 -7.93643 11564 ft 287 kts 252°
2026-05-07 19:16 41.10810 -7.96210 11244 ft 288 kts 252°
2026-05-07 19:17 41.10306 -7.98744 10944 ft 288 kts 252°
2026-05-07 19:17 41.09789 -8.01346 10636 ft 288 kts 252°
2026-05-07 19:17 41.09277 -8.03905 10338 ft 287 kts 252°
2026-05-07 19:17 41.08769 -8.06451 10064 ft 284 kts 252°
2026-05-07 19:18 41.08271 -8.08943 9897 ft 277 kts 252°
2026-05-07 19:18 41.07782 -8.11389 9623 ft 273 kts 252°
2026-05-07 19:18 41.07302 -8.13783 9328 ft 271 kts 252°
2026-05-07 19:18 41.06821 -8.16181 9037 ft 268 kts 252°
2026-05-07 19:19 41.06345 -8.18551 8734 ft 265 kts 252°
2026-05-07 19:19 41.05874 -8.20891 8470 ft 261 kts 252°
2026-05-07 19:19 41.05407 -8.23209 8194 ft 259 kts 252°
2026-05-07 19:19 41.04944 -8.25507 7897 ft 258 kts 252°
2026-05-07 19:20 41.04484 -8.27783 7600 ft 255 kts 252°
2026-05-07 19:20 41.04028 -8.30040 7352 ft 252 kts 252°
2026-05-07 19:20 41.03576 -8.32275 7073 ft 251 kts 252°
2026-05-07 19:20 41.03119 -8.34529 6819 ft 256 kts 252°
2026-05-07 19:21 41.02658 -8.36807 6617 ft 255 kts 251°
2026-05-07 19:21 41.02202 -8.39058 6523 ft 247 kts 252°
2026-05-07 19:21 41.01779 -8.41147 6541 ft 224 kts 251°
2026-05-07 19:21 41.01393 -8.43044 6568 ft 204 kts 251°
2026-05-07 19:22 41.01038 -8.44787 6500 ft 189 kts 250°
2026-05-07 19:22 41.00706 -8.46417 6383 ft 177 kts 250°
2026-05-07 19:22 41.00400 -8.47937 6251 ft 166 kts 252°
2026-05-07 19:22 41.00169 -8.49461 6089 ft 172 kts 254°
2026-05-07 19:23 40.99935 -8.51039 5916 ft 176 kts 255°
2026-05-07 19:23 40.99696 -8.52633 5702 ft 177 kts 255°
2026-05-07 19:23 40.99455 -8.54232 5475 ft 176 kts 256°
2026-05-07 19:23 40.99213 -8.55816 5326 ft 175 kts 256°
2026-05-07 19:24 40.98972 -8.57398 5212 ft 175 kts 256°
2026-05-07 19:24 40.98803 -8.58995 5075 ft 177 kts 273°
2026-05-07 19:24 40.99251 -8.60511 4842 ft 182 kts 306°
2026-05-07 19:24 41.00266 -8.61500 4599 ft 185 kts 338°
2026-05-07 19:25 41.01512 -8.61934 4380 ft 185 kts 345°
2026-05-07 19:25 41.02771 -8.62297 4143 ft 185 kts 346°
2026-05-07 19:25 41.04027 -8.62651 3881 ft 184 kts 345°
2026-05-07 19:25 41.05277 -8.62998 3623 ft 182 kts 346°
2026-05-07 19:26 41.06512 -8.63332 3376 ft 180 kts 347°
2026-05-07 19:26 41.07738 -8.63656 3125 ft 178 kts 347°
2026-05-07 19:26 41.08939 -8.63972 2979 ft 175 kts 347°
2026-05-07 19:26 41.10127 -8.64284 2871 ft 175 kts 347°
2026-05-07 19:27 41.11297 -8.64590 2664 ft 175 kts 347°
2026-05-07 19:27 41.12328 -8.64860 2454 ft 175 kts 347°
2026-05-07 19:27 41.13516 -8.65169 2214 ft 170 kts 347°
2026-05-07 19:27 41.14650 -8.65466 2011 ft 163 kts 347°
2026-05-07 19:28 41.15760 -8.65756 1761 ft 162 kts 347°
2026-05-07 19:28 41.16855 -8.66043 1526 ft 157 kts 346°
2026-05-07 19:28 41.17907 -8.66318 1365 ft 152 kts 347°
2026-05-07 19:28 41.18935 -8.66587 1165 ft 149 kts 348°
2026-05-07 19:29 41.19949 -8.66858 938 ft 148 kts 347°
2026-05-07 19:29 41.20929 -8.67123 749 ft 144 kts 348°
2026-05-07 19:29 41.21919 -8.67361 547 ft 141 kts 347°
2026-05-07 19:29 41.22888 -8.67621 354 ft 143 kts 345°
2026-05-07 19:30 41.23870 -8.67880 229 ft 140 kts 347°
2026-05-07 19:30 41.24644 -8.68087 207 ft 78 kts 349°
2026-05-07 19:30 41.25003 -8.68182 186 ft 32 kts 350°
2026-05-07 19:30 41.25194 -8.68145 182 ft 21 kts 18°
2026-05-07 19:31 41.25283 -8.68095 178 ft 11 kts 46°
2026-05-07 19:31 41.25272 -8.68023 179 ft 8 kts 152°
2026-05-07 19:31 41.25230 -8.68008 182 ft 5 kts 167°
2026-05-07 19:31 41.25198 -8.67999 184 ft 6 kts 168°
2026-05-07 19:32 41.25124 -8.67980 184 ft 16 kts 169°
2026-05-07 19:32 41.24978 -8.67939 190 ft 26 kts 168°
2026-05-07 19:32 41.24817 -8.67859 204 ft 27 kts 154°
2026-05-07 19:32 41.24649 -8.67797 212 ft 22 kts 168°
2026-05-07 19:33 41.24502 -8.67758 217 ft 21 kts 169°
2026-05-07 19:33 41.24372 -8.67726 225 ft 16 kts 169°
2026-05-07 19:33 41.24287 -8.67676 231 ft 12 kts 136°
2026-05-07 19:33 41.24239 -8.67604 237 ft 8 kts 141°
2026-05-07 19:34 41.24190 -8.67573 239 ft 8 kts 164°
2026-05-07 19:34 41.24123 -8.67555 239 ft 12 kts 168°
2026-05-07 19:34 41.24032 -8.67531 239 ft 15 kts 169°
2026-05-07 19:34 41.23920 -8.67502 239 ft 18 kts 169°
2026-05-07 19:35 41.23839 -8.67481 239 ft 16 kts 169°
2026-05-07 19:35 41.23752 -8.67443 239 ft 12 kts 142°
2026-05-07 19:35 41.23703 -8.67368 239 ft 10 kts 136°
2026-05-07 19:35 41.23647 -8.67336 239 ft 8 kts 169°
2026-05-07 19:36 41.23597 -8.67334 239 ft 6 kts 194°
2026-05-07 19:36 41.23558 -8.67359 239 ft 6 kts 208°
2026-05-07 19:36 41.23539 -8.67359 239 ft 1 kts 157°
2026-05-07 19:36 41.23528 -8.67345 239 ft 4 kts 128°
2026-05-07 19:37 41.23513 -8.67308 239 ft 3 kts 113°
2026-05-07 19:37 41.23508 -8.67294 239 ft 1 kts 114°
2026-05-07 19:37 41.23507 -8.67292 239 ft 0 kts 114°
2026-05-07 19:37 41.23506 -8.67289 239 ft 0 kts 114°